DW4989 Weather Reports


time (UTC)temp
F
wind
direction
speed
knots
gust
knots
rain 1hr
in
rain 24hr
in
rain mn
in
humidity
%
barometer
mb
20260906194607 82 98 7.8 14.8 0.00 0.00 0.00 65 1019.8
20260906193108 81 120 7.8 15.6 0.00 0.00 0.00 68 1019.9
20260906191621 80 107 7.0 13.9 0.00 0.00 0.00 70 1020.2
20260906190104 80 88 8.7 14.8 0.00 0.00 0.00 68 1020.5
20260906184603 79 147 8.7 16.5 0.00 0.00 0.00 70 1020.7
20260906183104 79 108 9.6 17.4 0.00 0.00 0.00 69 1021.1
20260906181603 78 75 7.0 17.4 0.00 0.00 0.00 72 1021.5
20260906180059 78 23 9.6 22.6 0.00 0.00 0.00 74 1022.0
20260906174613 77 78 9.6 20.9 0.00 0.00 0.00 74 1022.3
20260906173108 77 67 8.7 22.6 0.00 0.00 0.00 76 1022.5
20260906171606 78 79 13.0 23.5 0.00 0.00 0.00 74 1022.7
20260906170114 80 107 7.8 17.4 0.00 0.00 0.00 69 1022.5
20260906164604 80 88 6.1 13.0 0.00 0.00 0.00 69 1022.4
20260906163105 78 84 6.1 10.4 0.00 0.00 0.00 73 1022.1
20260906161604 77 91 2.6 7.0 0.00 0.00 0.00 76 1022.1
20260906160059 75 39 3.5 11.3 0.00 0.00 0.00 79 1022.0
20260906154614 74 39 7.0 11.3 0.00 0.00 0.00 79 1021.9
20260906153121 74 34 6.1 11.3 0.00 0.00 0.00 80 1021.8
20260906151600 73 28 0.9 4.3 0.00 0.00 0.00 82 1021.7
20260906150106 72 9 1.7 4.3 0.00 0.00 0.00 84 1021.4
20260906144617 71 53 1.7 4.3 0.00 0.00 0.00 87 1021.2
20260906143108 71 326 1.7 3.5 0.00 0.00 0.00 89 1021.1
20260906141618 70 122 0.9 1.7 0.00 0.00 0.00 89 1021.4
20260906140110 70 0 0.0 2.6 0.00 0.00 0.00 88 1021.6
20260906134631 70 0 0.9 4.3 0.00 0.00 0.00 86 1021.3
20260906133104 71 0 0.9 2.6 0.00 0.00 0.00 84 1021.3
20260906131606 72 127 0.9 2.6 0.00 0.00 0.00 81 1020.2
20260906130108 72 0 0.0 4.3 0.00 0.00 0.00 79 1020.2
20260906124608 73 0 0.0 10.4 0.00 0.00 0.00 79 1020.2
20260906123101 72 26 5.2 8.7 0.00 0.00 0.00 80 1020.5
20260906121603 72 4 1.7 7.0 0.00 0.00 0.00 79 1020.6
20260906120109 72 84 13.0 19.1 0.00 0.00 0.00 79 1019.9
20260906114629 75 131 0.9 10.4 0.00 0.00 0.00 72 1018.9
20260906113101 74 221 7.0 19.1 0.00 0.00 0.00 74 1018.6
20260906111621 73 227 13.9 28.7 0.00 0.00 0.00 74 1018.6
20260906104607 74 232 8.7 15.6 0.00 0.00 0.00 73 1020.0
20260906103100 75 237 10.4 15.6 0.00 0.00 0.00 72 1020.0
20260906101604 76 263 7.0 14.8 0.00 0.00 0.00 77 1019.4
20260906094604 74 216 1.7 3.5 0.00 0.00 0.00 93 1019.7
20260906093106 74 137 0.9 2.6 0.00 0.00 0.00 93 1019.2
20260906091607 74 226 0.0 1.7 0.00 0.00 0.00 93 1019.2
20260906090130 74 0 0.0 0.0 0.00 0.00 0.00 93 1019.4
20260906084611 75 0 0.0 0.0 0.00 0.00 0.00 92 1019.3
20260906083059 75 0 0.0 0.0 0.00 0.00 0.00 91 1019.5
20260906081604 76 0 0.0 4.3 0.00 0.00 0.00 90 1019.5
20260906074611 76 219 2.6 7.8 0.00 0.00 0.00 90 1020.1
20260906073110 75 294 6.1 8.7 0.00 0.00 0.00 91 1020.5
20260906071558 75 271 0.0 5.2 0.00 0.00 0.00 91 1020.0
20260906070135 75 226 0.0 3.5 0.00 0.00 0.00 91 1019.5
20260906064602 76 122 3.5 5.2 0.00 0.00 0.00 90 1019.0
20260906063108 76 93 1.7 5.2 0.00 0.00 0.00 90 1019.0
20260906061635 75 97 2.6 6.1 0.00 0.00 0.00 91 1019.3
20260906060109 76 86 3.5 6.1 0.00 0.00 0.00 91 1019.1
20260906054606 76 92 0.9 2.6 0.00 0.00 0.00 89 1019.3
20260906053101 76 92 1.7 5.2 0.00 0.00 0.00 88 1019.4
20260906051606 76 84 1.7 4.3 0.00 0.00 0.00 89 1019.4
20260906050116 76 117 1.7 4.3 0.00 0.00 0.00 90 1019.2
20260906044603 76 105 1.7 4.3 0.00 0.00 0.00 89 1019.0
20260906043112 76 98 1.7 4.3 0.00 0.00 0.00 88 1019.2
20260906041558 77 130 1.7 4.3 0.00 0.00 0.00 88 1019.2
20260906040119 77 107 1.7 5.2 0.00 0.00 0.00 87 1019.3
20260906034602 77 86 2.6 5.2 0.00 0.00 0.00 86 1019.4
20260906033101 77 104 2.6 3.5 0.00 0.00 0.00 86 1019.7
20260906031612 77 0 0.0 0.9 0.00 0.00 0.00 88 1019.5
20260906030109 77 58 1.7 3.5 0.00 0.00 0.00 86 1019.2
20260906024603 79 95 0.0 3.5 0.00 0.00 0.00 85 1019.2
20260906023132 79 139 1.7 3.5 0.00 0.00 0.00 82 1019.2
20260906021608 78 0 0.0 1.7 0.00 0.00 0.00 85 1018.8
20260906020107 79 0 0.0 0.0 0.00 0.00 0.00 83 1018.6
20260906014629 79 143 0.0 0.9 0.00 0.00 0.00 84 1018.3
20260906013103 81 0 0.0 1.7 0.00 0.00 0.00 82 1017.7
20260906011602 82 84 1.7 4.3 0.00 0.00 0.00 77 1017.6
20260906004614 83 66 1.7 5.2 0.00 0.00 0.00 76 1017.3
20260906003109 83 60 2.6 4.3 0.00 0.00 0.00 75 1017.2
20260906001602 85 190 2.6 6.1 0.00 0.00 0.00 71 1017.1
20260906000111 86 226 3.5 6.1 0.00 0.00 0.00 72 1017.1
20260905234604 87 215 2.6 4.3 0.00 0.00 0.00 69 1017.1
20260905233106 87 162 1.7 4.3 0.00 0.00 0.00 67 1017.1
20260905231601 89 190 3.5 7.0 0.00 0.00 0.00 64 1017.0
20260905230109 90 174 4.3 9.6 0.00 0.00 0.00 61 1017.0
20260905224610 90 217 5.2 10.4 0.00 0.00 0.00 62 1017.1
20260905223107 91 217 7.8 13.9 0.00 0.00 0.00 60 1017.0
20260905221606 88 173 7.8 14.8 0.00 0.00 0.00 65 1016.7
20260905220123 85 198 8.7 14.8 0.00 0.00 0.00 69 1017.2
20260905214606 83 212 6.1 12.2 0.00 0.00 0.00 70 1018.2
20260905213108 81 220 6.1 8.7 0.00 0.00 0.00 77 1018.8
20260905211609 83 266 5.2 8.7 0.00 0.00 0.00 73 1019.2
20260905210107 83 293 4.3 9.6 0.00 0.00 0.00 72 1019.5
20260905204600 84 267 5.2 9.6 0.00 0.00 0.00 69 1019.5
20260905203105 85 293 7.0 14.8 0.00 0.00 0.00 69 1019.6
20260905201607 86 247 6.1 19.1 0.00 0.00 0.00 67 1018.8